GALAXY 5

导读

GALAXY 5(银河5号)是美国休斯飞机公司基于HS-376平台建造的地球静止轨道通信卫星,由PanAmSat运营,1992年3月14日于美国佛罗里达州卡纳维拉尔角空军基地,通过宇宙神I火箭发射升空。卫星携带24个C波段转发器,定点于东经176度,主要为北美地区提供通信服务,2005年1月完成使命正式退役。

Basic Information
目录编号:
21906
目录名称:
GALAXY 5
国际标识:
1992-013A
轨道中心:
EARTH
卫星名称:
GALAXY 5
卫星全名:
--
卫星状态:
在轨 (已飞行12603 天)
发射日期:
1992-03-14 UTC
国别 :
美国 (US)
星等 :
--
This satellite is enrolled in the Space Conjunction Data Service (SCDS) and the current flight risk assessment level is: No High Risk
Orbit Information
数据来源 国际轨道数据 AOE轨道数据
星历时间 2026-09-15T12:58:43+0800
17小时前
查看轨道信息
2026-09-12T13:00:00+0800
3天前
查看轨道信息
半长轴 42442.171km 42442.028km
偏心率 0.0013277 0.0013247
轨道倾角 13.572° 13.569°
近地点辐角 102.900° 102.743°
升交点赤经 17.657° 17.680°
平近点角 262.156° 270.258°
近地点 36007.683km 36007.668km
远地点 36120.385km 36120.114km
周期 1450.294分钟 1450.287分钟
每日圈数 0.992902 0.992907
Detailed Information
使用方式:
暂无
2D Orbit Map
3D Orbit Map
Orbit Altitude Analysis Chart
Orbit Inclination Analysis Chart
Orbit Comprehensive Analysis Chart
View Comprehensive Chart
Miss Distance Evolution Trend with All Objects Subscribe to Flight Safety Assessment
Collision Probability Evolution Trend with All Objects Subscribe to Flight Safety Assessment